Regional Weather Roundup
Issued by NWS Sterling, VA

Home | Current Version | Previous Version | Text Only | Print | Product List | Glossary Off
Versions: 1 2 3 4 5 6 7 8 9 10 11 12 13 14 15 16 17 18 19 20 21 22 23 24 25 26 27

000
ASUS41 KLWX 261110
RWRLWX

REGIONAL WEATHER ROUNDUP
NATIONAL WEATHER SERVICE BALTIMORE MD/WASHINGTON DC
700 AM EDT MON SEP 26 2016

Note: "FAIR" indicates few or no clouds below 12,000 feet
with no significant weather and/or obstructions to visibility.
 TC=TEMPERATURE CELSIUS

 * =Non NWS site. Station does not report precipitation (e.g. rain,
    snow, etc.), thunder, or fog.

DCZ001-MDZ009-015-VAZ040>042-051-053>054-261200-
WASHINGTON METRO

CITY           SKY/WX    TMP DP  RH WIND       PRES   REMARKS
WASHINGTON NAT CLOUDY    66  59  78 S9        30.14S
DULLES         CLOUDY    64  55  72 S5        30.13S
ANDREWS AFB    CLOUDY    62  58  86 S5        30.13S
FT BELVOIR     CLOUDY    61  58  91 CALM      30.13S
QUANTICO       CLOUDY    67  57  70 SW6       30.14S
COLLEGE PARK*  CLOUDY    57  52  82 CALM      30.14R
LEESBURG*      CLOUDY    63  59  88 CALM      30.14S
MANASSAS*      CLOUDY    63  61  94 CALM      30.13S
GAITHERSBURG*  CLOUDY    57  52  82 CALM      30.17S

$$

MDZ006>007-011-014-261200-
BALTIMORE METRO

CITY           SKY/WX    TMP DP  RH WIND       PRES   REMARKS
BWI AIRPORT    CLOUDY    57  53  86 CALM      30.14R
MD SCIENCE CTR   N/A     63  53  70 MISG      30.15S
MARTIN STATE   MOCLDY    57  57 100 CALM      30.16S
ANNAPOLIS      CLOUDY    67  60  78 SE10      30.14S
FORT MEADE*    CLOUDY    54  52  94 CALM      30.17R

$$

MDZ012-015-019>023-261200-
MARYLAND EASTERN SHORE

CITY           SKY/WX    TMP DP  RH WIND       PRES   REMARKS
OCEAN CITY     CLEAR     51  49  92 CALM      30.17S
SALISBURY      PTCLDY    50  48  93 CALM      30.17R
BAY BRIDGE AP* CLOUDY    64  57  77 MISG      30.15R
CAMBRIDGE*     PTCLDY    54  52  94 CALM      30.15S
EASTON*        MOCLDY    59  54  82 SE6       30.18S

$$

MDZ017>025-261200-
SOUTHERN MARYLAND

CITY           SKY/WX    TMP DP  RH WIND       PRES   REMARKS
PATUXENT RIVER CLOUDY    65  57  75 S5        30.14S
ST INIGOES     CLOUDY    67  59  75 S5        30.14R
LEONARDTOWN*   CLOUDY    63  57  82 CALM      30.16R

$$

MDZ003>005-261200-
NORTH CENTRAL MARYLAND

CITY           SKY/WX    TMP DP  RH WIND       PRES   REMARKS
FREDERICK*     NOT AVBL
HAGERSTOWN APT CLOUDY    61  52  72 CALM      30.12S

$$

MDZ501>502-261200-
WESTERN MARYLAND

CITY           SKY/WX    TMP DP  RH WIND       PRES   REMARKS
OAKLAND*       CLEAR     52  52 100 S7        30.10S
CUMBERLAND*    CLOUDY    55  52  88 CALM      30.13R

$$

VAZ025>031-261200-
SHENANDOAH VALLEY

CITY           SKY/WX    TMP DP  RH WIND       PRES   REMARKS
WINCHESTER*    CLOUDY    61  55  82 CALM      30.10S
FRONT ROYAL*   CLOUDY    59  59 100 CALM      30.09S
LURAY*         CLOUDY    63  63 100 CALM      30.11S
NEW MARKET*    CLOUDY   N/A N/A N/A SW6       30.09F
STAUNTON*      CLOUDY    62  59  90 S6        30.13S
WAYNESBORO*    CLOUDY    60  59  96 SE6       30.12S

$$

WVZ021-048>050-054>055-261200-
EASTERN WEST VIRGINIA PANHANDLE

CITY           SKY/WX    TMP DP  RH WIND       PRES   REMARKS
MARTINSBURG    CLOUDY    59  54  83 CALM      30.10S
PETERSBURG*    CLEAR     57  51  82 W3        30.09S

$$

VAZ036>039-050-261200-
CENTRAL FOOTHILLS

CITY           SKY/WX    TMP DP  RH WIND       PRES   REMARKS
CHARLOTTESVILL CLOUDY    63  60  90 CALM      30.13S
CULPEPER*      CLOUDY    63  61  93 CALM      30.14S
ORANGE*          N/A     63  63 100 CALM      30.15R
GORDONSVILLE*  NOT AVBL
WARRENTON*     CLOUDY    63  52  67 CALM      30.12S

$$

VAZ055>057-261200-
NORTH AND CENTRAL PIEDMONT

CITY           SKY/WX    TMP DP  RH WIND       PRES   REMARKS
FREDERICKSBRG* CLOUDY    63  59  88 CALM      30.13S
STAFFORD*      CLOUDY    61  60  96 CALM      30.17S

$$

NCZ024-NYZ072-PAZ021-071-VAZ022-071-261200-
OTHER REGIONAL OBSERVATIONS

CITY           SKY/WX    TMP DP  RH WIND       PRES   REMARKS
NEW YORK CITY  CLEAR     55  45  68 E7        30.22R
PHILADELPHIA   MOCLDY    54  50  86 CALM      30.18S
PITTSBURGH     PTCLDY    54  50  86 SE3       29.99F
ROANOKE        DRIZZLE   64  64 100 SE8       30.13S FOG
RICHMOND       CLOUDY    64  58  80 S3        30.14R
RALEIGH        LGT RAIN  67  58  72 SE5       30.13R

$$

ANZ530>537-261200-
MARINE OBSERVATIONS

STATION/POSITION TIME  TEMP    WIND        PRES
                       AIR SEA DIR/SP/G
                 (UTC) (F)     (DEG/KT/KT) (MB)
THOMAS PT LIGHT  1100   67 74  140/ 15/ 18 1021.7S
BALT KEY BRIDGE  1042   66     140/  8/  9 1020.6R
COVE POINT       1042   67     210/  7/  8 1021.2R
LEWISETTA        1042   66 73  180/  3/  4 1020.3S
SOLOMONS ISLAND  1042   67 76  180/  5/  7   N/A
PINEY POINT      1048          200/  9/ 12   N/A

$$





USA.gov is the U.S. government's official web portal to all federal, state and local government web resources and services.